User: anonymous   Login
Location: Unspecified
(0.0000°N, 0.0000°E)
Time: 22:14:15
(UTC+00:00)
Language:

Aussat K2 - Orbit

View from above orbital plane
View from above orbital plane
View from above satellite
View from above satellite

Ground track
Ground track

The orbit data is extracted from the following two-line orbital elements,

1 16275U 85109C   16337.20925645  .00000017  00000-0  00000+0 0  9994
2 16275  15.1604  10.6251 0008745 236.0742 141.9891  0.99935404103250
Epoch (UTC): 02 December 2016 05:01:19
Eccentricity: 0.0008745
inclination: 15.1604°
perigee height: 35844 km
apogee height: 35918 km
right ascension of ascending node: 10.6251°
argument of perigee: 236.0742°
revolutions per day: 0.99935404
mean anomaly at epoch: 141.9891°
orbit number at epoch: 10325

The dashed part of the orbit path shows where the satellite is in the earth's shadow,  

DLR